Waukesha, WI

2:53 PM CDT on September 24, 2017 (GMT -0500)
Waukesha County

Weather History for KUES - December, 2012

Change the Weather History Date:

Thursday, December 13, 2012

  Actual Average Record
Temperature  
Mean Temperature 37 °F -  
Max Temperature 44 °F 33 °F 59 °F (2015)
Min Temperature 30 °F 18 °F -6 °F (1961)
Degree Days  
Heating Degree Days 28    
Moisture  
Dew Point 25 °F    
Average Humidity 72    
Maximum Humidity 86    
Minimum Humidity 42    
Precipitation  
Precipitation 0.00 in - - ()
Sea Level Pressure  
Sea Level Pressure 30.14 in    
Wind  
Wind Speed 9 mph (SSW)    
Max Wind Speed 15 mph    
Max Gust Speed 23 mph    
Visibility 10 miles    
Events      
Averages and records for this station are not official NWS values.
T = Trace of Precipitation, MM = Missing Value Source: NWS Daily Summary

Daily Weather History Graph

Daily Weather History Graph

Search for Another Location

Airport or City:

Trip Planner

Search our weather history database for the weather conditions in past years. The results will help you decide how hot, cold, wet, or windy it might be!

Date:

Astronomy

Dec. 13, 2012 Rise Set
Actual Time 7:16 AM CST 4:18 PM CST
Civil Twilight 6:43 AM CST 4:50 PM CST
Nautical Twilight 6:08 AM CST 5:26 PM CST
Astronomical Twilight 5:33 AM CST 6:01 PM CST
Moon 7:24 AM CST (12/13) 5:01 PM CST (12/13)
Length of Visible Light 10h 06m
Length of Day
9h 02m
New Moon, 0% of the Moon is Illuminated
Dec 13
New Moon
Dec 19
First Quarter
Dec 28
Full
Jan 4
Last Quarter
Jan 11
New

Hourly Weather History & Observations

Time (CST) Temp. Windchill Dew Point Humidity Pressure Visibility Wind Dir Wind Speed Gust Speed Precip Events Conditions
12:15 AM 32.0 °F 23.6 °F 26.6 °F 80% 30.19 in 10.0 mi South 10.4 mph - N/A   Clear
12:35 AM 32.0 °F 24.2 °F 26.6 °F 80% 30.19 in 10.0 mi South 9.2 mph - N/A   Clear
12:55 AM 32.0 °F 24.8 °F 26.6 °F 80% 30.19 in 10.0 mi South 8.1 mph - N/A   Clear
1:15 AM 32.0 °F 24.2 °F 26.6 °F 80% 30.20 in 10.0 mi South 9.2 mph - N/A   Clear
1:35 AM 32.0 °F 24.8 °F 26.6 °F 80% 30.20 in 10.0 mi South 8.1 mph - N/A   Clear
1:55 AM 32.0 °F 24.8 °F 26.6 °F 80% 30.21 in 10.0 mi South 8.1 mph - N/A   Clear
2:15 AM 32.0 °F 26.4 °F 26.6 °F 80% 30.21 in 10.0 mi South 5.8 mph - N/A   Clear
2:35 AM 32.0 °F 25.6 °F 24.8 °F 75% 30.21 in 10.0 mi South 6.9 mph - N/A   Clear
2:55 AM 32.0 °F 24.8 °F 24.8 °F 75% 30.20 in 10.0 mi South 8.1 mph - N/A   Clear
3:15 AM 32.0 °F 24.2 °F 24.8 °F 75% 30.20 in 10.0 mi South 9.2 mph 16.1 mph N/A   Clear
3:35 AM 32.0 °F 24.8 °F 24.8 °F 75% 30.19 in 10.0 mi South 8.1 mph 16.1 mph N/A   Clear
3:55 AM 32.0 °F 24.8 °F 24.8 °F 75% 30.19 in 10.0 mi South 8.1 mph 16.1 mph N/A   Clear
4:15 AM 32.0 °F 24.2 °F 23.0 °F 69% 30.18 in 10.0 mi SSW 9.2 mph - N/A   Clear
4:35 AM 32.0 °F 24.2 °F 23.0 °F 69% 30.18 in 10.0 mi South 9.2 mph 16.1 mph N/A   Clear
6:45 AM 30.2 °F 20.8 °F 23.0 °F 75% 30.17 in 10.0 mi South 11.5 mph - N/A   Clear
7:45 AM 30.2 °F 20.8 °F 23.0 °F 75% 30.16 in 10.0 mi South 11.5 mph - N/A   Clear
8:45 AM 33.8 °F 25.3 °F 23.0 °F 65% 30.15 in 10.0 mi South 11.5 mph - N/A   Clear
9:45 AM 37.4 °F 29.8 °F 23.0 °F 56% 30.15 in 10.0 mi South 11.5 mph - N/A   Clear
10:45 AM 42.8 °F 35.4 °F 21.2 °F 42% 30.11 in 10.0 mi SSW 15.0 mph - N/A   Clear
11:45 AM 42.8 °F 35.4 °F 23.0 °F 46% 30.11 in 10.0 mi SW 15.0 mph - N/A   Clear
12:45 PM 44.6 °F 37.8 °F 24.8 °F 46% 30.09 in 10.0 mi SSW 15.0 mph - N/A   Clear
1:45 PM 42.8 °F 36.6 °F 24.8 °F 49% 30.06 in 10.0 mi South 11.5 mph 23.0 mph N/A   Scattered Clouds
2:45 PM 44.6 °F 38.8 °F 24.8 °F 46% 30.05 in 10.0 mi SSW 11.5 mph 23.0 mph N/A   Scattered Clouds
3:45 PM 42.8 °F 38.0 °F 26.6 °F 53% 30.05 in 10.0 mi SSW 8.1 mph - N/A   Scattered Clouds
7:45 PM 33.8 °F 28.6 °F 26.6 °F 75% 30.11 in 10.0 mi SSW 5.8 mph - N/A   Clear
8:15 PM 33.8 °F 29.6 °F 26.6 °F 75% 30.10 in 10.0 mi SSW 4.6 mph - N/A   Clear
8:35 PM 33.8 °F 27.7 °F 26.6 °F 75% 30.10 in 10.0 mi SSW 6.9 mph - N/A   Clear
8:45 PM 33.8 °F 28.6 °F 26.6 °F 75% 30.10 in 10.0 mi SSW 5.8 mph - N/A   Clear
8:55 PM 32.0 °F 26.4 °F 26.6 °F 80% 30.10 in 10.0 mi SSW 5.8 mph - N/A   Clear
9:15 PM 32.0 °F 25.6 °F 26.6 °F 80% 30.11 in 10.0 mi SSW 6.9 mph - N/A   Clear
9:35 PM 32.0 °F 27.5 °F 26.6 °F 80% 30.11 in 10.0 mi SW 4.6 mph - N/A   Clear
9:55 PM 32.0 °F 27.5 °F 26.6 °F 80% 30.11 in 10.0 mi SW 4.6 mph - N/A   Clear
10:15 PM 32.0 °F 26.4 °F 26.6 °F 80% 30.12 in 10.0 mi SW 5.8 mph - N/A   Clear
10:35 PM 32.0 °F 28.7 °F 26.6 °F 80% 30.12 in 10.0 mi SSW 3.5 mph - N/A   Clear
10:55 PM 32.0 °F - 26.6 °F 80% 30.12 in 10.0 mi Calm Calm - N/A   Clear
11:15 PM 30.2 °F - 26.6 °F 86% 30.13 in 10.0 mi Calm Calm - N/A   Clear
11:35 PM 30.2 °F - 26.6 °F 86% 30.13 in 10.0 mi Calm Calm - N/A   Clear
11:55 PM 30.2 °F 25.4 °F 26.6 °F 86% 30.13 in 10.0 mi SW 4.6 mph - N/A   Clear